TimeEDT,TemperatureF,Dew PointF,Humidity,Sea Level PressureIn,VisibilityMPH,Wind Direction,Wind SpeedMPH,Gust SpeedMPH,PrecipitationIn,Events,Conditions,WindDirDegrees,DateUTC
12:54 AM,62.1,46.9,58,30.15,10.0,South,6.9,-,N/A,,Clear,170,2012-09-11 04:54:00
1:54 AM,60.1,48.0,64,30.16,10.0,South,5.8,-,N/A,,Clear,180,2012-09-11 05:54:00
2:54 AM,57.0,46.9,69,30.16,10.0,Calm,Calm,-,N/A,,Clear,0,2012-09-11 06:54:00
3:54 AM,57.0,48.0,72,30.17,10.0,Calm,Calm,-,N/A,,Clear,0,2012-09-11 07:54:00
4:54 AM,57.9,48.9,72,30.17,10.0,Calm,Calm,-,N/A,,Clear,0,2012-09-11 08:54:00
5:54 AM,53.1,46.9,80,30.19,10.0,Calm,Calm,-,N/A,,Clear,0,2012-09-11 09:54:00
6:54 AM,52.0,46.9,83,30.19,10.0,Calm,Calm,-,N/A,,Clear,0,2012-09-11 10:54:00
7:54 AM,53.1,48.0,83,30.21,10.0,Calm,Calm,-,N/A,,Clear,0,2012-09-11 11:54:00
8:54 AM,60.1,52.0,75,30.21,10.0,South,4.6,-,N/A,,Clear,190,2012-09-11 12:54:00
9:54 AM,66.0,53.1,63,30.21,10.0,SSW,8.1,-,N/A,,Clear,200,2012-09-11 13:54:00
10:54 AM,70.0,55.9,61,30.21,10.0,SSW,9.2,-,N/A,,Clear,210,2012-09-11 14:54:00
11:54 AM,73.0,55.0,53,30.20,10.0,SSW,15.0,-,N/A,,Clear,210,2012-09-11 15:54:00
12:54 PM,75.9,55.0,48,30.19,10.0,SW,13.8,20.7,N/A,,Clear,230,2012-09-11 16:54:00
1:54 PM,77.0,54.0,45,30.18,10.0,SW,10.4,23.0,N/A,,Clear,220,2012-09-11 17:54:00
2:54 PM,79.0,52.0,39,30.15,10.0,SW,16.1,23.0,N/A,,Clear,220,2012-09-11 18:54:00
3:54 PM,80.1,53.1,39,30.13,10.0,SSW,16.1,20.7,N/A,,Clear,210,2012-09-11 19:54:00
4:54 PM,81.0,53.1,38,30.12,10.0,SSW,11.5,-,N/A,,Clear,200,2012-09-11 20:54:00
5:54 PM,80.1,52.0,38,30.11,10.0,South,16.1,21.9,N/A,,Clear,190,2012-09-11 21:54:00
6:54 PM,78.1,52.0,40,30.11,10.0,South,11.5,-,N/A,,Clear,190,2012-09-11 22:54:00
7:54 PM,73.0,53.1,49,30.12,10.0,South,6.9,-,N/A,,Clear,170,2012-09-11 23:54:00
8:54 PM,71.1,53.1,53,30.13,10.0,South,6.9,-,N/A,,Clear,180,2012-09-12 00:54:00
9:54 PM,69.1,53.1,57,30.14,10.0,South,9.2,-,N/A,,Clear,180,2012-09-12 01:54:00
10:54 PM,66.9,53.1,61,30.14,10.0,South,8.1,-,N/A,,Clear,180,2012-09-12 02:54:00
11:54 PM,64.9,53.1,65,30.15,10.0,South,6.9,-,N/A,,Clear,170,2012-09-12 03:54:00